Theta_e
284 285 286 286 287 287 288 288 288 288 289 289 289 289 289 289 289 289 289 289 289 289 290 290 290 290 289 289 289 289 289 289 289 289 289 289 290 290 289 289 290 290 289 289 289 289 289 288 289 290 291 291 291 290 291 291 291 291 292 292 293 293 294 295 296 297 298 300 301
285 285 285 286 286 287 287 288 288 289 289 289 289 288 288 288 288 289 288 288 289 289 289 290 289 288 288 288 288 288 288 288 288 288 289 289 289 289 289 289 289 289 289 289 288 289 289 288 289 290 290 290 290 290 290 291 291 291 290 291 291 292 293 294 294 295 297 299 300
286 286 286 286 286 287 287 288 288 287 287 287 288 288 288 288 288 289 289 289 288 288 288 289 289 288 288 287 287 288 288 288 288 288 288 288 288 288 288 288 288 287 287 288 288 289 289 288 289 289 290 290 289 289 289 290 290 290 290 290 291 291 292 292 293 294 296 297 299
285 286 286 286 286 286 286 288 288 287 287 288 288 287 287 288 289 289 289 289 288 288 288 289 289 288 288 287 287 287 287 288 288 288 288 288 287 287 287 287 287 287 287 287 287 287 287 288 289 289 289 288 288 288 288 289 289 289 289 289 290 291 291 291 292 293 294 295 297
286 286 286 286 286 286 286 286 287 287 288 288 288 289 289 289 289 289 289 290 290 290 290 288 288 288 287 287 286 286 286 286 287 287 287 287 287 286 286 286 286 286 286 286 286 286 287 287 288 289 289 288 288 288 288 288 289 289 289 290 290 290 290 291 291 292 293 294 295
286 286 286 286 286 286 286 286 286 287 288 288 288 288 289 290 290 290 290 290 290 290 289 287 287 287 286 286 285 285 286 286 286 287 287 287 286 286 285 285 285 285 285 285 285 286 286 286 288 288 288 288 288 288 288 288 288 288 289 289 290 290 290 290 291 291 292 292 293
286 286 286 286 286 286 287 287 287 288 288 288 288 288 289 289 289 289 289 289 289 289 288 288 288 287 287 286 285 285 285 285 285 286 286 286 286 286 285 285 284 284 284 285 285 285 285 285 287 288 288 288 289 288 288 287 288 288 288 288 289 289 290 290 290 291 291 291 292
286 286 286 287 287 287 287 287 288 288 289 289 289 289 288 288 288 288 288 288 288 288 288 288 287 287 286 286 285 285 285 285 285 285 285 286 285 285 285 285 284 284 284 284 284 284 284 285 286 287 287 287 288 288 287 287 287 287 288 288 289 289 290 290 290 290 291 291 292
287 287 288 288 288 288 288 288 288 288 288 288 288 288 288 288 287 287 287 287 288 288 287 287 286 286 285 285 285 285 285 285 285 285 285 285 285 285 285 285 285 284 284 284 284 284 284 285 286 286 286 288 288 287 287 286 286 287 287 288 288 289 289 289 289 290 290 291 291
288 288 288 288 288 288 288 288 288 288 287 288 287 287 287 287 287 287 287 287 287 287 286 286 286 285 285 285 285 285 285 286 286 286 286 286 286 286 286 286 286 285 285 285 285 284 284 285 285 285 285 285 285 285 285 286 286 286 287 288 288 288 288 288 289 289 289 290 290
287 287 288 288 288 288 288 288 288 288 288 288 287 287 287 287 286 287 287 287 286 286 286 286 286 285 285 286 286 286 286 286 287 287 286 286 286 286 286 287 286 286 286 285 285 285 285 285 285 285 285 285 285 285 285 285 285 286 286 287 287 287 287 287 288 288 288 289 289
286 287 287 287 287 287 287 287 287 287 287 287 287 287 287 287 286 286 286 285 286 286 286 286 286 286 286 286 286 287 287 287 287 287 287 287 287 287 287 287 286 286 286 286 286 286 286 285 285 285 284 284 285 285 285 285 285 285 285 286 286 286 286 287 287 288 288 288 288
286 286 286 286 286 286 286 286 286 287 286 286 286 286 287 287 287 286 286 285 286 286 287 287 286 286 286 287 287 287 287 287 287 287 287 287 287 287 287 287 287 287 287 287 286 286 286 286 285 284 284 284 285 285 285 285 285 285 285 285 285 285 286 286 286 287 287 287 287
285 285 285 285 285 285 285 285 286 286 286 286 286 286 287 287 287 287 286 286 286 287 287 287 287 287 287 287 287 287 287 288 287 287 287 287 287 287 287 287 287 287 287 287 287 287 286 286 285 285 284 284 284 285 285 285 285 285 285 285 285 285 285 286 286 286 287 287 287
284 284 284 285 284 285 285 285 286 286 286 286 286 286 287 287 287 287 287 286 286 287 287 287 287 288 288 288 287 287 287 287 287 287 287 287 287 287 287 288 287 287 287 287 287 287 287 286 286 285 285 285 285 285 285 285 285 286 286 286 286 286 286 286 286 286 286 286 286
284 284 284 284 284 285 285 285 286 286 286 286 286 286 286 286 286 286 286 286 286 287 287 287 287 287 288 288 288 288 288 287 288 287 287 287 287 288 288 287 287 287 287 287 287 287 287 287 286 286 286 285 285 285 285 285 286 286 287 287 287 286 286 286 286 286 286 286 286
284 284 284 284 284 284 284 285 285 285 285 285 285 285 286 286 286 286 286 286 286 286 286 286 286 287 287 287 287 287 288 287 287 288 287 287 287 287 287 288 288 288 287 287 287 287 287 287 287 287 286 286 286 286 286 286 287 287 288 288 287 287 287 287 287 287 287 287 286
284 284 284 284 284 284 284 284 284 285 284 285 285 285 285 285 285 285 285 285 285 285 285 285 286 286 286 286 287 287 287 287 287 287 287 287 287 287 288 288 288 288 288 288 287 287 287 287 287 287 287 286 286 286 286 287 287 288 288 288 288 288 288 287 288 288 288 287 287
283 283 283 284 284 284 284 284 284 284 284 284 284 284 284 284 284 284 285 285 285 285 285 285 285 285 285 285 286 286 286 286 286 286 286 287 287 287 287 288 288 288 288 288 288 287 287 287 287 287 287 287 287 287 287 287 288 288 288 288 288 288 288 288 288 288 288 288 288
283 283 283 283 284 284 284 284 284 284 284 284 284 284 284 284 284 284 284 284 284 284 284 284 284 284 284 285 285 285 285 285 285 286 286 286 286 287 287 287 287 287 287 288 288 288 287 287 287 287 287 287 287 287 287 287 287 287 288 288 288 288 288 288 288 288 288 288 288
283 283 283 283 283 283 283 283 283 283 283 283 283 283 283 283 283 283 283 283 283 283 283 283 283 283 283 283 283 284 284 285 285 285 285 285 285 286 286 287 287 287 287 287 287 287 287 287 287 287 287 287 287 287 287 287 287 287 287 288 288 288 288 288 288 288 288 288 288
283 283 283 283 283 283 283 283 283 283 282 282 282 282 282 282 282 282 283 283 283 283 282 282 282 282 282 283 283 283 283 284 284 284 284 284 285 285 285 286 286 286 286 286 286 287 287 287 287 287 287 287 287 287 286 286 286 286 287 287 287 288 288 288 289 288 288 288 288
283 283 283 283 283 283 282 282 282 282 282 281 282 281 282 282 282 282 282 282 282 282 282 282 282 282 282 282 282 282 282 283 283 283 283 284 284 284 285 285 285 285 285 286 286 286 286 286 286 286 286 286 286 286 286 286 286 286 286 286 287 287 288 288 288 289 289 289 288
283 283 283 283 282 282 282 281 281 281 281 281 281 281 281 281 281 281 281 281 281 281 281 281 281 282 282 282 282 282 282 282 282 282 282 283 283 283 284 284 284 284 285 285 285 286 286 285 286 286 286 286 286 286 286 286 286 286 286 286 287 287 287 288 288 288 288 288 288
282 282 282 282 281 281 281 281 280 280 280 280 280 280 280 280 280 280 281 280 280 280 281 281 281 281 281 281 282 282 282 281 282 282 282 283 283 283 283 284 284 284 285 285 286 286 286 286 286 286 285 285 286 286 286 286 286 286 287 287 286 287 287 287 288 288 288 288 288
281 281 281 281 280 280 280 280 279 279 279 280 280 280 280 280 280 280 280 280 280 280 280 280 280 281 281 281 281 281 281 281 282 282 282 282 282 283 283 283 283 284 284 285 286 286 286 286 286 286 286 286 286 286 286 286 286 287 287 287 287 287 286 286 287 287 287 287 288
280 280 280 280 280 279 279 279 279 279 279 279 279 279 279 279 280 280 279 279 279 280 280 280 280 281 281 281 281 281 281 281 281 282 282 282 282 282 282 282 283 283 284 285 285 286 286 286 286 286 286 286 286 286 286 286 286 287 287 287 287 287 286 286 286 286 286 287 287
279 279 279 279 279 279 279 279 278 278 278 279 279 279 279 279 279 279 279 279 280 280 280 280 280 281 281 280 280 280 280 280 281 281 281 281 281 281 281 281 282 282 283 284 285 285 285 286 286 286 286 285 286 286 286 286 286 286 286 286 286 286 286 286 286 286 286 286 286
279 278 278 278 278 278 278 278 278 278 278 278 279 279 279 279 279 279 279 280 280 280 280 280 280 280 280 280 280 280 280 280 280 280 280 280 280 280 280 281 281 281 282 284 284 284 284 285 285 285 286 286 285 285 285 286 285 286 286 286 286 286 285 286 286 286 286 286 286
278 278 278 278 278 278 278 278 278 278 278 279 279 279 279 279 279 279 280 279 279 279 279 280 280 280 279 279 279 279 279 279 280 280 280 280 280 280 280 280 280 281 282 283 283 284 284 284 284 284 285 285 284 284 284 284 285 285 285 285 285 285 285 285 285 285 286 286 286
278 278 277 277 277 277 278 278 278 278 278 279 279 279 279 279 279 279 279 279 279 279 280 280 279 279 279 279 279 279 279 279 279 279 279 279 279 279 280 280 280 281 282 283 283 283 284 284 284 284 284 284 284 283 284 284 284 284 284 284 284 284 285 285 285 285 285 285 285
277 277 277 277 277 277 277 278 278 278 278 278 278 279 279 279 279 279 279 279 279 279 279 279 279 278 278 279 279 279 279 279 279 279 279 279 279 279 280 280 280 280 281 283 283 283 284 284 284 284 284 284 284 283 283 283 283 283 284 284 284 284 284 284 284 285 285 285 285
277 277 277 277 277 277 277 278 278 278 278 278 278 279 279 279 279 279 279 279 279 278 278 278 278 278 278 278 278 278 278 279 279 279 279 279 279 279 279 280 280 281 282 283 283 283 283 284 284 284 284 284 284 283 283 283 283 283 283 283 284 284 284 284 284 285 285 285 285
277 277 277 277 277 277 277 277 277 278 278 278 278 278 278 278 278 278 278 278 278 278 278 278 278 278 278 278 278 278 278 278 278 279 279 279 279 279 279 279 280 281 282 283 283 283 283 283 284 284 284 284 283 283 283 283 283 283 283 283 284 284 284 284 284 285 285 285 285
277 277 277 277 277 277 277 277 277 277 278 278 278 278 278 278 277 277 278 278 278 278 278 278 278 278 278 278 278 278 278 278 278 278 278 279 279 279 279 279 279 281 282 282 283 283 283 283 283 284 284 284 283 283 283 283 283 283 283 283 283 283 284 284 284 285 285 285 285
277 276 276 276 277 277 277 277 277 277 277 277 277 277 277 277 277 277 277 277 277 277 277 277 277 277 277 277 278 278 278 278 278 278 278 279 279 278 278 278 279 280 281 282 283 283 283 283 283 284 284 283 283 283 283 283 283 283 283 283 283 283 284 284 284 285 285 285 285
277 276 276 276 276 277 277 277 277 277 277 277 277 277 277 277 277 277 277 277 277 277 276 277 277 277 277 277 277 278 278 278 278 278 278 278 278 278 278 278 279 279 281 282 282 283 283 283 283 283 283 283 282 282 282 282 282 283 283 283 283 283 284 284 284 285 285 285 285
277 277 276 276 276 277 277 277 277 277 277 276 276 276 277 277 277 277 277 277 277 276 276 276 276 277 277 277 277 277 278 278 278 278 278 278 278 278 278 278 279 279 280 282 282 283 283 283 284 284 283 282 282 282 282 282 282 282 282 283 283 283 284 284 285 285 285 285 286
277 277 277 276 276 277 277 277 277 276 276 276 276 276 276 276 276 277 277 277 277 276 276 276 276 277 277 277 277 277 277 278 278 278 278 278 278 279 279 279 279 279 280 282 283 283 283 284 284 284 284 283 283 282 282 282 282 282 282 282 283 283 283 284 285 285 285 285 286
277 277 277 277 276 276 276 277 277 276 276 276 276 276 276 276 277 277 277 277 277 277 277 277 277 277 277 277 277 277 277 277 278 278 278 278 279 280 280 279 279 280 280 282 282 283 283 284 284 284 284 283 283 283 283 282 282 282 282 282 282 283 283 284 284 285 285 285 286
277 277 277 277 277 276 276 276 276 277 277 276 276 276 276 277 277 277 277 277 277 277 277 277 277 277 277 277 277 277 277 277 278 278 279 279 279 280 280 280 280 280 280 281 282 283 283 284 284 284 284 283 283 283 283 282 282 282 282 282 282 283 283 283 284 285 285 285 286
Wind_Speed
3 3 3 3 3 3 3 4 4 4 4 4 4 4 4 4 4 4 4 4 4 4 5 5 5 5 5 5 6 7 7 7 6 6 5 5 5 5 5 5 4 4 4 3 3 3 3 2 2 1 1 1 2 2 2 2 2 3 3 4 4 4 5 7 7 8 9 10 9
4 4 4 4 4 4 4 4 4 4 4 4 5 5 5 4 5 5 5 5 5 5 5 5 5 5 6 7 7 7 7 7 7 6 6 6 5 5 5 5 5 5 4 4 4 3 3 2 2 2 2 2 2 2 3 2 2 3 4 5 4 4 5 6 7 8 9 9 8
4 4 4 4 5 5 5 5 5 6 6 5 5 5 5 5 5 5 6 6 6 5 5 5 5 5 6 7 7 6 6 7 7 6 6 6 6 6 6 5 5 5 5 4 4 3 3 3 2 2 2 2 2 3 3 3 3 3 4 5 4 4 5 5 6 6 7 7 8
4 4 5 5 6 6 6 5 6 7 7 6 6 5 5 5 5 6 6 6 6 6 6 6 6 6 6 6 7 7 7 7 7 7 6 6 6 6 6 6 5 5 5 5 5 4 4 3 3 2 2 3 3 3 3 3 3 4 4 4 4 5 5 6 5 5 6 6 7
5 5 4 5 6 6 6 6 7 7 7 6 6 6 6 6 6 6 6 7 7 7 7 7 6 6 6 6 7 8 8 7 7 7 6 6 6 6 6 6 6 6 6 5 5 5 4 4 3 3 3 3 3 4 4 4 4 4 4 4 4 5 5 6 5 6 6 6 6
5 5 5 5 6 6 6 6 7 7 7 6 6 7 8 7 7 8 8 9 9 9 9 8 7 7 7 7 7 7 7 7 7 6 7 7 6 6 6 6 6 6 6 6 6 6 5 4 3 3 3 3 4 4 4 5 5 5 5 5 5 5 5 6 5 6 6 7 8
4 5 6 6 6 6 6 6 7 7 7 6 8 9 10 10 10 10 10 10 9 9 9 8 7 8 8 7 7 7 7 7 6 7 7 7 7 6 6 6 6 6 6 6 6 6 5 5 4 4 4 4 4 4 5 5 5 6 7 7 6 6 5 7 5 6 7 9 10
4 5 5 6 7 7 8 7 7 7 7 7 9 10 11 11 12 12 11 10 9 8 7 6 8 9 9 8 8 7 7 7 7 7 7 7 7 7 7 7 6 7 7 7 6 6 6 5 4 4 4 4 4 5 5 6 6 7 8 9 8 6 6 6 5 6 7 10 11
5 6 6 7 7 8 8 8 8 8 8 9 10 10 11 11 11 11 10 9 8 8 7 7 8 9 9 9 9 8 8 7 7 7 7 7 7 7 7 7 7 7 7 6 7 7 7 5 4 4 4 4 5 5 6 6 7 8 9 9 8 7 7 6 6 7 8 9 11
6 6 7 7 8 8 8 8 8 8 8 9 10 10 10 10 10 9 8 8 8 8 8 7 8 9 10 10 9 9 8 8 8 8 8 7 8 8 8 7 7 7 7 6 6 7 6 5 5 5 5 5 6 6 6 7 8 8 9 7 7 8 9 8 8 8 9 9 10
6 6 6 7 7 8 8 8 8 8 8 9 9 9 9 9 9 8 8 7 8 9 9 9 9 10 10 10 10 9 9 9 8 9 9 9 9 9 8 8 8 8 7 7 6 6 6 5 6 6 7 6 6 7 7 7 8 9 9 8 9 10 10 10 9 9 9 9 11
6 6 6 6 7 7 7 7 7 7 8 9 9 9 9 9 9 9 9 8 9 10 10 9 10 10 10 10 10 10 10 10 10 10 10 10 10 10 9 9 9 9 8 8 6 6 6 6 7 7 8 7 6 6 7 8 8 9 10 10 10 11 11 12 10 9 9 9 10
6 6 6 6 7 7 7 7 7 8 9 10 10 10 10 10 10 10 10 10 11 11 11 11 11 11 11 11 11 11 11 11 11 11 11 11 11 11 11 10 10 10 10 9 7 7 7 7 8 8 8 8 7 7 7 8 9 9 10 11 11 11 12 12 11 10 10 10 11
5 6 6 7 7 7 8 9 9 10 10 12 12 11 11 12 12 11 11 12 12 12 12 12 11 11 11 12 12 12 12 12 12 12 13 12 12 12 12 12 11 11 10 9 9 9 9 9 9 9 9 9 8 8 8 9 9 10 10 11 12 12 12 12 12 11 11 11 12
6 7 8 8 9 9 9 10 10 11 12 13 13 13 13 12 13 12 12 12 13 13 12 12 12 12 13 13 13 13 13 13 13 13 14 14 14 13 13 13 12 12 11 11 10 10 10 10 10 10 9 10 9 9 9 9 10 10 11 11 12 13 13 13 12 12 12 12 12
8 9 9 10 10 11 11 11 11 11 12 13 14 14 13 13 13 13 13 13 13 12 13 14 14 14 14 14 14 14 14 14 14 14 14 14 14 14 14 14 13 13 13 12 11 11 11 11 10 10 11 11 11 10 10 10 11 11 12 13 13 13 13 13 13 13 13 13 13
10 10 11 11 12 12 13 13 12 12 13 14 14 14 14 13 13 13 13 14 13 13 14 15 15 15 15 15 15 14 14 14 14 15 15 15 15 15 15 15 14 14 13 13 13 12 12 12 11 11 11 12 12 11 11 11 12 12 13 14 14 14 14 14 14 14 14 14 14
10 11 11 12 12 13 14 14 14 14 14 15 15 14 14 13 13 14 14 14 14 15 16 16 15 15 15 16 15 14 14 15 15 15 15 15 16 16 16 16 15 15 14 14 14 14 14 13 13 12 12 12 12 12 12 13 13 13 14 14 14 15 15 15 15 15 15 15 15
10 11 12 12 13 14 14 15 15 15 15 15 14 14 14 15 15 15 15 15 15 16 16 16 16 15 16 16 16 15 15 15 16 16 17 16 16 16 16 16 16 16 15 15 15 15 15 14 14 14 13 13 13 13 14 14 14 14 14 15 15 15 16 16 16 16 16 16 16
11 11 12 13 13 14 14 15 15 15 14 14 15 15 15 16 15 16 16 16 16 16 16 16 16 16 16 17 17 17 16 15 16 17 17 17 17 17 17 17 17 17 16 16 16 16 16 15 15 15 15 15 15 15 15 15 15 15 15 15 15 15 15 16 16 16 16 16 17
11 12 12 13 13 14 14 14 14 15 15 15 15 15 15 16 16 16 16 16 16 16 16 16 16 16 17 17 18 18 17 15 16 17 18 18 18 18 18 18 18 18 18 17 18 18 18 17 17 16 16 16 16 17 16 16 16 16 16 15 15 15 15 16 16 16 17 17 17
12 12 12 13 13 14 14 14 14 14 15 15 15 15 15 15 15 16 16 16 16 16 16 16 16 16 17 17 18 18 18 16 17 17 17 18 18 18 18 18 19 19 19 19 19 19 19 19 18 18 17 17 17 17 17 17 17 17 17 17 16 16 16 16 16 17 17 18 17
12 12 12 13 13 14 14 14 14 15 15 15 15 15 15 15 15 15 15 15 15 15 15 15 15 16 16 17 17 18 18 17 17 17 17 17 18 18 18 18 19 19 19 19 18 18 18 18 18 18 17 17 17 17 17 17 17 16 16 17 17 17 16 16 16 16 17 17 17
12 12 12 12 13 14 14 14 15 15 15 16 15 15 15 15 15 15 15 15 15 15 15 14 14 15 16 16 17 17 17 18 18 18 18 18 17 18 18 18 18 18 18 16 16 16 16 15 15 15 15 16 16 16 16 16 16 16 16 16 16 16 16 15 15 15 16 16 15
12 12 12 12 13 14 14 14 15 15 16 16 16 16 16 15 15 15 15 16 16 16 16 16 16 15 15 16 16 17 17 17 18 18 19 18 18 17 17 16 16 15 14 14 18 21 22 19 16 14 14 14 14 14 14 15 15 15 15 16 16 16 15 16 16 16 16 15 15
12 12 13 13 13 14 14 15 15 15 16 16 16 17 16 16 15 15 16 16 16 16 16 16 16 16 15 15 16 17 17 16 17 17 17 17 18 18 17 16 14 13 12 15 19 23 24 25 23 19 16 14 14 14 14 14 14 15 15 15 15 15 16 16 17 17 17 16 15
11 12 12 13 13 14 15 15 15 15 16 16 17 17 17 16 15 15 16 16 17 17 16 16 16 15 15 15 16 17 17 16 16 17 17 18 18 18 18 17 15 13 13 17 22 24 25 25 26 24 21 16 14 13 13 13 14 14 15 15 15 16 17 18 18 18 18 17 17
11 11 12 13 14 14 15 15 15 16 16 16 17 17 17 17 17 17 17 17 17 17 16 15 15 13 13 13 15 16 17 17 16 16 17 18 18 19 19 17 16 16 17 21 25 26 27 27 27 26 24 20 16 14 14 14 14 14 14 14 15 16 17 17 17 16 16 17 17
11 11 12 13 14 15 15 15 16 16 16 16 17 17 17 17 18 18 18 18 18 17 16 14 13 12 12 14 16 17 18 18 17 17 17 18 19 19 19 19 18 19 22 26 28 29 29 29 28 28 27 24 17 13 12 12 12 13 13 13 13 14 15 15 14 14 15 15 15
11 11 12 13 14 15 15 15 16 16 16 15 16 17 18 18 19 19 20 19 19 17 16 14 14 14 15 17 17 17 18 18 17 17 17 18 19 19 19 19 19 20 22 26 28 29 29 29 29 29 28 27 22 17 13 13 13 13 13 13 14 15 15 15 15 15 15 15 15
11 11 12 13 14 15 15 16 16 16 16 15 17 18 19 19 20 20 19 19 18 18 17 17 17 18 19 18 18 18 19 19 18 18 18 18 19 20 20 21 21 21 23 27 29 30 30 30 30 30 29 28 23 18 15 15 15 15 14 14 16 17 17 16 16 16 16 16 16
11 11 12 13 15 15 16 16 16 16 16 17 18 19 19 20 20 19 19 18 18 18 19 19 19 20 20 20 19 20 20 19 19 19 19 19 20 21 21 21 22 22 24 27 29 30 31 31 30 30 30 29 24 20 18 17 17 17 17 18 19 20 19 17 16 17 18 18 17
11 12 13 14 15 15 16 16 16 16 16 17 18 19 19 20 19 19 19 18 17 18 18 19 19 20 20 20 20 20 20 20 20 20 20 21 21 22 22 22 21 21 24 27 29 30 30 30 30 30 30 29 24 21 19 18 17 16 16 18 19 20 21 21 19 19 19 19 18
11 12 13 14 15 16 16 16 15 16 16 17 18 18 19 19 20 19 19 18 17 17 17 18 18 19 19 19 19 20 20 19 19 20 21 21 22 22 22 21 18 19 24 28 30 31 31 31 31 31 30 30 24 20 18 18 17 17 17 18 19 19 20 21 21 21 21 21 19
11 12 14 14 15 15 16 16 16 16 16 17 18 18 19 19 19 19 19 18 18 17 17 17 17 18 18 18 18 19 20 20 20 20 20 21 21 22 23 23 21 23 27 31 32 32 32 32 32 32 31 28 21 18 17 19 18 18 19 20 20 21 21 21 21 21 21 21 20
11 12 13 14 15 16 16 16 16 17 18 18 18 18 19 19 18 18 18 18 18 18 18 18 18 18 18 19 18 18 19 20 21 21 21 21 22 22 23 24 24 26 29 31 33 33 33 33 33 33 31 26 19 16 16 16 16 18 19 20 21 21 22 22 21 21 20 20 20
11 12 13 14 15 16 16 16 17 18 18 18 18 18 18 19 18 18 17 17 17 18 18 18 18 19 19 19 19 19 19 20 21 21 22 22 22 23 24 24 25 26 28 30 32 33 34 34 34 33 30 24 18 16 15 15 14 15 17 19 20 20 21 20 20 20 20 21 21
12 12 13 14 15 16 16 17 17 18 18 19 18 18 18 18 18 18 17 16 17 18 18 19 19 19 19 19 19 20 21 21 21 22 22 23 23 23 23 24 25 25 26 28 31 32 33 33 33 32 29 22 18 16 15 14 14 15 16 16 17 18 18 17 16 17 19 21 22
12 12 13 14 15 16 17 17 18 18 18 19 19 19 19 18 17 17 17 16 16 17 18 19 20 20 19 20 20 20 21 22 22 22 22 22 23 23 24 24 24 24 25 27 30 32 33 33 33 32 30 24 19 16 14 13 14 15 16 15 15 16 17 16 15 15 16 20 24
12 12 13 14 15 16 16 17 18 18 18 18 19 19 19 18 17 17 17 16 16 17 18 19 20 20 20 20 20 21 22 22 22 22 22 22 23 24 25 25 24 24 25 28 31 32 33 33 33 33 30 23 18 15 13 13 14 15 16 15 14 14 14 14 14 14 15 17 21
12 12 13 14 14 15 16 18 18 18 18 18 18 18 18 17 17 17 16 16 17 17 17 17 20 21 21 20 19 20 21 22 23 22 22 22 23 24 24 24 24 24 25 26 29 31 33 33 33 33 30 23 18 15 13 12 14 15 16 16 14 13 13 13 13 13 14 15 16
Wind_Direction
293 290 289 289 289 291 292 291 289 286 284 282 281 279 276 272 272 269 266 263 261 263 262 261 259 259 260 259 257 258 261 262 261 254 244 233 227 218 209 202 197 193 192 195 199 202 205 206 217 237 254 259 269 275 278 284 291 293 294 294 294 293 292 290 287 284 280 276 273
302 301 299 298 298 299 301 302 300 298 295 290 286 283 281 278 278 278 276 271 266 265 265 266 263 262 261 261 258 258 259 261 259 254 244 233 224 213 203 198 194 192 190 191 196 200 202 203 214 238 259 265 274 279 279 274 279 287 292 292 292 292 291 288 285 283 281 277 272
306 309 311 313 313 312 312 310 307 304 301 299 296 292 289 286 285 283 282 278 274 270 269 271 268 264 262 263 262 260 259 258 256 252 245 234 222 210 201 195 193 192 191 191 195 198 201 201 212 235 256 270 274 277 278 279 281 284 288 289 291 291 290 287 286 285 284 281 274
311 313 314 313 310 308 305 304 303 303 302 301 300 297 293 289 287 285 284 283 281 278 274 271 270 268 266 265 266 265 262 256 252 247 242 234 222 211 202 195 193 193 194 193 195 197 200 200 212 233 251 261 266 268 272 277 280 280 281 283 285 286 286 285 285 284 283 281 277
312 309 306 303 301 298 296 295 297 298 299 300 302 301 297 293 291 289 289 290 288 285 282 279 276 274 270 267 266 265 262 257 248 242 236 231 222 214 205 197 196 196 195 193 194 196 197 199 213 229 243 253 260 264 267 271 274 275 276 280 281 281 281 281 281 281 280 280 279
307 304 301 299 296 295 294 293 293 294 296 300 300 299 298 297 296 296 295 293 292 291 290 287 283 279 274 270 265 262 259 254 245 237 231 229 224 216 209 205 202 199 196 194 194 194 195 196 213 227 236 245 256 261 264 266 269 272 274 278 278 278 276 274 275 276 277 276 276
299 300 300 299 299 299 298 297 297 298 299 300 299 298 297 296 296 295 294 293 293 293 292 289 285 282 278 274 269 263 256 250 243 234 228 228 226 222 216 212 207 203 200 196 195 194 194 192 207 224 235 240 253 259 261 261 264 268 273 276 276 274 270 267 268 269 271 271 272
300 301 302 303 304 304 303 303 305 306 306 305 302 299 297 296 295 294 294 294 293 291 290 290 287 284 281 278 273 266 258 250 244 235 229 228 228 226 223 217 213 209 205 199 196 195 195 193 204 216 226 235 248 254 257 257 260 265 269 271 273 271 266 262 261 261 263 266 269
309 309 310 310 310 310 309 308 308 307 306 303 300 297 296 296 294 294 294 293 291 290 290 290 289 287 285 281 276 269 261 252 248 242 235 229 228 227 226 222 218 216 212 203 199 197 197 198 208 214 218 226 240 247 250 251 255 259 263 267 270 269 265 259 255 256 258 262 266
313 314 314 314 312 311 310 310 309 306 303 301 298 297 296 295 294 293 292 290 291 292 292 290 290 290 289 286 281 274 267 259 255 250 244 238 233 231 230 227 224 223 220 212 205 201 201 204 213 218 221 222 229 236 240 240 245 251 256 261 265 266 264 259 254 254 256 259 263
310 310 311 310 310 310 311 311 309 307 304 302 300 299 298 297 296 294 293 294 296 294 293 291 293 292 292 289 285 281 275 270 266 262 258 253 247 242 239 237 233 232 230 225 217 211 210 214 220 224 225 223 224 228 230 230 234 241 248 256 259 261 261 259 255 254 255 258 261
305 305 304 305 308 310 312 312 310 308 306 303 303 302 301 300 299 298 298 299 298 296 294 294 294 294 293 291 289 286 282 278 274 271 268 265 261 257 253 249 246 243 240 236 229 226 225 226 228 229 231 229 227 228 228 228 232 239 245 252 254 256 258 258 255 254 254 256 260
300 302 305 308 311 313 313 312 310 308 307 306 305 305 304 302 302 301 301 301 299 298 298 297 296 294 292 291 290 288 286 282 279 277 274 272 270 267 264 261 257 255 252 248 242 238 237 236 234 235 236 236 236 234 234 233 237 241 245 249 251 252 254 255 254 254 254 255 257
303 308 312 315 317 317 316 314 311 310 309 308 306 306 305 304 304 303 303 301 300 299 299 298 296 294 292 291 290 289 287 285 283 280 278 276 274 272 269 267 265 262 260 258 253 249 246 245 242 241 241 242 241 239 238 237 239 242 244 246 248 249 251 253 252 252 253 253 255
316 319 321 323 322 321 318 315 312 311 310 308 307 307 306 305 305 304 303 302 300 300 299 299 298 296 295 294 292 291 289 287 285 282 280 277 275 273 271 270 268 266 264 263 260 256 253 251 249 247 247 247 246 243 241 239 240 241 242 243 245 247 248 250 249 249 249 250 253
327 327 327 326 324 320 317 315 312 310 309 307 307 307 307 306 305 305 304 303 302 301 301 300 299 299 298 296 295 294 292 290 287 284 282 280 278 276 274 272 270 269 267 266 264 262 259 256 254 253 252 252 251 249 246 244 244 244 244 244 245 246 247 247 247 247 247 247 249
329 327 326 324 320 317 314 312 310 309 308 307 307 307 306 306 306 305 304 303 303 302 301 300 300 299 298 297 296 295 293 291 289 286 284 282 281 279 277 275 274 272 271 270 268 267 264 262 260 258 257 256 256 254 253 251 251 250 249 248 247 246 245 245 245 245 245 245 246
325 322 320 318 315 313 311 309 308 307 306 306 306 306 306 306 305 304 303 302 302 301 300 299 299 298 297 296 296 294 293 291 289 287 285 283 282 281 279 277 276 275 273 272 270 269 267 265 264 262 261 259 259 258 257 256 256 255 254 251 248 246 244 243 242 243 243 243 244
318 316 315 313 311 309 308 307 307 306 306 306 306 306 305 305 304 303 302 301 301 300 299 299 298 297 296 296 295 294 292 290 289 287 285 283 282 280 279 278 277 275 274 272 271 270 268 267 265 264 262 262 261 260 260 259 259 257 255 253 249 246 244 241 240 239 240 241 243
313 311 310 309 308 307 307 306 306 306 306 306 306 305 304 303 303 302 301 300 300 300 299 298 298 297 296 296 295 294 292 290 289 287 286 284 283 281 280 279 278 277 275 273 272 270 269 267 266 264 263 263 263 263 263 262 261 258 256 253 250 247 243 240 238 237 237 238 240
309 308 307 307 307 306 306 306 307 307 306 305 304 304 303 302 301 300 300 299 300 300 299 298 297 296 296 296 295 294 292 291 289 288 287 286 285 284 283 282 281 279 278 276 274 272 271 270 268 267 266 265 265 264 264 263 261 259 256 254 251 247 243 240 238 237 236 236 237
307 307 307 307 307 307 307 307 307 307 306 305 303 302 302 301 300 299 299 299 299 299 298 297 296 295 295 295 294 294 293 292 290 289 287 287 285 284 284 283 282 280 279 277 275 274 273 271 270 269 268 267 265 264 263 261 260 258 256 253 251 248 244 241 239 237 236 236 236
306 307 307 307 307 308 308 308 308 307 305 304 303 302 301 300 299 299 299 299 298 297 296 295 295 294 294 293 293 293 292 291 289 288 286 284 283 283 282 281 280 278 277 275 274 273 273 272 271 270 268 267 265 264 262 260 258 256 255 252 250 247 244 240 238 237 236 235 234
307 307 308 308 309 309 309 308 308 306 305 304 303 302 301 300 300 300 299 298 297 296 295 294 294 293 293 292 291 291 290 289 288 287 285 283 282 281 281 280 278 276 275 274 273 272 272 272 272 271 269 267 265 264 262 259 257 255 253 252 250 247 244 240 238 237 236 234 233
307 308 308 308 309 309 308 308 307 305 304 303 303 302 301 301 300 300 298 297 296 295 294 294 293 293 292 291 290 289 288 287 286 286 286 285 284 283 282 281 279 277 274 273 272 272 271 270 269 269 268 266 264 262 260 257 254 252 251 249 248 247 245 243 241 240 238 236 234
307 308 308 308 308 307 307 306 305 304 303 303 303 302 301 300 299 298 297 296 295 295 294 294 293 293 292 290 290 289 288 286 286 286 286 287 286 285 283 282 280 277 275 273 273 273 272 271 269 268 267 266 264 262 259 255 252 249 247 245 244 244 244 244 244 242 241 238 236
307 307 307 307 307 306 305 305 304 303 303 303 302 301 301 300 299 298 296 295 295 295 294 293 293 292 291 289 288 288 287 287 287 286 286 286 286 285 284 282 280 278 276 275 275 275 274 273 271 270 268 266 264 261 259 257 253 250 247 244 243 243 244 245 246 245 243 241 239
306 306 305 306 306 305 304 304 304 303 302 302 301 300 300 299 298 297 296 295 295 295 295 293 293 292 290 288 288 288 288 287 286 286 285 284 282 282 281 280 279 277 276 276 277 277 276 275 274 272 271 268 267 264 262 261 258 254 250 248 247 246 247 247 246 245 244 243 241
304 304 305 305 304 304 304 304 303 302 301 301 300 299 299 298 298 297 297 297 296 296 295 294 294 292 289 288 288 288 287 286 285 283 282 281 279 278 278 278 277 277 276 276 276 276 276 275 274 273 272 270 269 266 264 262 259 256 254 252 250 248 247 246 245 244 243 243 242
304 304 304 304 303 303 303 303 302 301 301 300 300 300 299 299 299 298 298 298 297 296 294 294 293 291 289 288 288 288 287 285 284 282 281 279 278 277 277 276 276 276 275 276 275 275 274 274 273 272 271 270 268 266 264 262 260 258 256 254 251 249 247 246 246 245 244 243 242
304 304 304 303 303 302 302 301 301 301 301 300 301 301 300 300 299 299 298 298 297 296 294 293 291 289 288 287 287 286 285 284 284 282 280 279 278 278 277 276 275 275 274 275 274 274 273 272 271 270 269 267 265 263 260 258 257 256 255 253 252 250 250 249 248 246 245 243 242
304 304 304 303 302 302 301 302 302 302 302 301 301 301 301 300 299 299 298 297 297 296 295 294 292 290 289 288 287 286 285 285 284 282 281 280 279 278 278 277 276 274 274 274 274 273 273 272 271 269 268 266 263 260 257 255 255 254 253 252 252 251 250 249 248 247 245 244 242
304 304 303 302 302 302 302 303 303 303 302 301 301 301 301 300 300 299 299 298 297 296 295 293 292 290 290 289 288 287 286 284 283 282 281 280 279 278 278 277 275 274 274 274 274 273 272 271 270 269 267 265 263 259 255 253 252 251 249 249 249 248 247 247 246 245 244 243 242
305 304 304 303 303 303 303 304 303 303 302 301 301 301 301 301 301 300 299 298 297 295 293 291 289 288 288 287 287 286 285 284 282 281 280 279 278 277 276 275 274 273 274 274 274 273 272 271 270 268 267 265 262 258 254 250 249 247 246 246 246 245 244 243 243 243 243 242 241
305 305 305 304 304 304 304 304 304 303 303 302 302 302 301 300 300 299 298 297 296 294 291 289 288 286 286 285 284 283 283 282 281 280 279 278 277 276 275 274 273 273 273 274 274 273 272 271 269 268 266 264 261 257 252 250 248 246 245 244 244 243 242 241 241 241 241 240 240
306 305 304 303 303 304 304 305 305 305 304 303 303 302 301 300 299 298 297 296 295 293 291 289 288 287 286 285 284 282 282 281 281 280 279 278 277 276 275 274 273 273 273 273 273 273 272 271 269 268 266 264 260 255 251 249 247 245 244 243 242 242 241 240 239 239 238 238 237
306 305 303 303 303 304 305 305 306 305 305 303 302 301 301 300 299 298 297 297 295 293 291 290 288 287 286 286 285 283 282 281 281 281 280 279 277 276 276 275 274 274 273 273 273 272 271 270 268 267 265 262 258 254 250 248 246 244 243 242 242 241 239 239 238 237 237 236 235
306 305 304 303 304 304 305 306 306 305 304 303 302 301 300 299 298 298 297 297 295 293 292 290 289 288 287 287 286 284 283 281 280 280 279 279 277 276 276 275 275 274 273 273 272 272 271 269 268 266 264 261 257 253 250 247 245 243 242 241 241 240 238 237 236 235 234 233 232
305 305 304 304 304 304 305 306 305 305 304 303 302 301 300 299 297 297 296 296 294 292 291 290 289 289 288 288 287 285 284 282 281 280 279 278 277 277 276 276 275 275 274 273 273 272 271 270 269 267 264 261 256 252 248 246 244 242 241 240 240 239 237 235 234 233 233 231 231
305 305 305 304 304 305 305 305 305 304 303 302 301 300 299 298 296 296 295 295 293 292 290 289 289 289 289 288 287 286 285 284 283 281 280 279 278 278 278 277 277 276 276 275 274 274 273 272 270 268 266 262 257 252 248 245 243 242 240 238 237 237 236 233 231 231 231 230 230
305 306 306 305 305 305 305 305 304 303 302 301 300 299 298 297 296 295 295 295 294 292 291 289 289 289 289 289 287 286 286 285 285 283 282 281 281 281 280 279 278 278 277 276 275 274 273 272 271 269 267 263 257 251 247 244 243 241 240 237 235 234 233 232 229 228 228 227 227